TimeCET,TemperatureF,Dew PointF,Humidity,Sea Level PressureIn,VisibilityMPH,Wind Direction,Wind SpeedMPH,Gust SpeedMPH,PrecipitationIn,Events,Conditions,WindDirDegrees,DateUTC
12:20 AM,51.8,50.0,94,30.21,1.9,NW,2.3,-,N/A,,Mist,320,2012-11-24 23:20:00
12:50 AM,50.0,48.2,94,30.21,3.1,WNW,2.3,-,N/A,,Mist,300,2012-11-24 23:50:00
1:20 AM,53.6,53.6,100,30.21,3.1,NW,1.2,-,N/A,,Mist,320,2012-11-25 00:20:00
1:50 AM,51.8,51.8,100,30.21,3.1,Calm,Calm,-,N/A,,Scattered Clouds,0,2012-11-25 00:50:00
2:20 AM,50.0,50.0,100,30.21,1.2,North,2.3,-,N/A,Fog,Patches of Fog,360,2012-11-25 01:20:00
2:50 AM,50.0,50.0,100,30.21,1.2,North,3.5,-,N/A,Fog,Patches of Fog,10,2012-11-25 01:50:00
3:20 AM,51.8,50.0,94,30.21,0.9,NNW,2.3,-,N/A,,Mist,340,2012-11-25 02:20:00
3:50 AM,51.8,50.0,94,30.21,1.6,NNW,2.3,-,N/A,,Mist,340,2012-11-25 02:50:00
4:20 AM,51.8,51.8,100,30.21,1.6,North,3.5,-,N/A,,Mist,360,2012-11-25 03:20:00
4:50 AM,51.8,50.0,94,30.21,1.6,NNW,2.3,-,N/A,,Mist,330,2012-11-25 03:50:00
5:20 AM,51.8,51.8,100,30.21,1.6,NNW,2.3,-,N/A,,Mist,330,2012-11-25 04:20:00
5:50 AM,51.8,51.8,100,30.21,1.6,NNW,2.3,-,N/A,,Mist,330,2012-11-25 04:50:00
6:20 AM,51.8,50.0,94,30.21,3.1,NNE,2.3,-,N/A,,Mist,20,2012-11-25 05:20:00
6:50 AM,51.8,51.8,100,30.21,2.5,North,3.5,-,N/A,,Mist,350,2012-11-25 05:50:00
7:20 AM,53.6,51.8,94,30.21,2.5,North,3.5,-,N/A,,Scattered Clouds,350,2012-11-25 06:20:00
8:20 AM,53.6,51.8,94,30.24,2.5,North,2.3,-,N/A,,Scattered Clouds,360,2012-11-25 07:20:00
8:50 AM,55.4,53.6,94,30.21,3.1,NNE,3.5,-,N/A,,Scattered Clouds,20,2012-11-25 07:50:00
9:20 AM,57.2,53.6,88,30.24,3.1,Variable,2.3,-,N/A,,Mostly Cloudy,0,2012-11-25 08:20:00
9:50 AM,59.0,53.6,82,30.24,3.1,Variable,2.3,-,N/A,,Mostly Cloudy,0,2012-11-25 08:50:00
10:20 AM,60.8,55.4,82,30.24,3.1,North,3.5,-,N/A,,Scattered Clouds,10,2012-11-25 09:20:00
10:50 AM,62.6,57.2,82,30.21,3.7,NE,3.5,-,N/A,,Scattered Clouds,40,2012-11-25 09:50:00
11:20 AM,62.6,55.4,77,30.21,3.7,NNE,4.6,-,N/A,,Mostly Cloudy,20,2012-11-25 10:20:00
11:50 AM,62.6,55.4,77,30.21,3.7,North,3.5,-,N/A,,Mostly Cloudy,10,2012-11-25 10:50:00
12:20 PM,64.4,57.2,77,30.21,4.3,Variable,2.3,-,N/A,,Mostly Cloudy,0,2012-11-25 11:20:00
12:50 PM,64.4,57.2,77,30.18,4.3,NNW,3.5,-,N/A,,Mostly Cloudy,340,2012-11-25 11:50:00
1:20 PM,64.4,55.4,73,30.18,4.3,Variable,1.2,-,N/A,,Mostly Cloudy,0,2012-11-25 12:20:00
1:50 PM,66.2,55.4,68,30.18,5.0,Variable,1.2,-,N/A,,Mostly Cloudy,0,2012-11-25 12:50:00
2:50 PM,64.4,55.4,73,30.15,5.0,North,1.2,-,N/A,,Mostly Cloudy,350,2012-11-25 13:50:00
3:20 PM,64.4,55.4,73,30.15,5.0,Variable,2.3,-,N/A,,Mostly Cloudy,0,2012-11-25 14:20:00
3:50 PM,62.6,55.4,77,30.15,6.2,NNW,2.3,-,N/A,,Partly Cloudy,330,2012-11-25 14:50:00
4:20 PM,60.8,55.4,82,30.15,6.2,Variable,2.3,-,N/A,,Partly Cloudy,0,2012-11-25 15:20:00
4:50 PM,60.8,53.6,77,30.15,6.2,Variable,2.3,-,N/A,,Partly Cloudy,0,2012-11-25 15:50:00
5:20 PM,57.2,53.6,88,30.18,6.2,West,3.5,-,N/A,,Scattered Clouds,270,2012-11-25 16:20:00
5:50 PM,57.2,53.6,88,30.18,6.2,Variable,2.3,-,N/A,,Scattered Clouds,0,2012-11-25 16:50:00
6:20 PM,57.2,53.6,88,30.18,6.2,WNW,4.6,-,N/A,,Scattered Clouds,290,2012-11-25 17:20:00
6:50 PM,59.0,55.4,88,30.18,6.2,WNW,4.6,-,N/A,,Partly Cloudy,300,2012-11-25 17:50:00
7:50 PM,57.2,53.6,88,30.18,5.0,ENE,3.5,-,N/A,,Partly Cloudy,70,2012-11-25 18:50:00
8:50 PM,55.4,53.6,94,30.18,3.7,ENE,3.5,-,N/A,,Partly Cloudy,60,2012-11-25 19:50:00
9:20 PM,55.4,53.6,94,30.18,3.7,Variable,1.2,-,N/A,,Partly Cloudy,0,2012-11-25 20:20:00
9:50 PM,55.4,53.6,94,30.18,3.7,Calm,Calm,-,N/A,,Partly Cloudy,0,2012-11-25 20:50:00
10:20 PM,53.6,51.8,94,30.18,3.7,Variable,1.2,-,N/A,,Unknown,0,2012-11-25 21:20:00
10:50 PM,51.8,50.0,94,30.18,3.7,Calm,Calm,-,N/A,,Unknown,0,2012-11-25 21:50:00
11:20 PM,51.8,50.0,94,30.18,2.5,NNE,3.5,-,N/A,,Mist,30,2012-11-25 22:20:00
11:50 PM,51.8,50.0,94,30.18,1.9,NNW,1.2,-,N/A,,Mist,340,2012-11-25 22:50:00